Location: *
(46.1866°S, 178.5290°W)
Time: 05:01:08
(UTC+00:00)

CZ-4B R/B - Pass Details

Date: 29 September 2021
Orbit: 809 x 881 km, 99.1° (Epoch: 17 October)

Event Time Altitude Azimuth Distance (km) Brightness Sun altitude
Rises 16:30:00 0° 57° (ENE) 3,405 7.0 -10.7°
Reaches altitude 10° 16:32:50 10° 71° (ENE) 2,465 6.6 -10.3°
Maximum altitude 16:36:57 22° 120° (ESE) 1,746 5.9 -9.6°
Drops below altitude 10° 16:41:02 10° 170° (S) 2,455 5.9 -8.9°
Sets 16:43:51 0° 184° (S) 3,386 6.5 -8.4°
